• In Czech Republic
  • List of Countries
  • For 7 days
  • Water Temperature
  • Satellite Maps
  • Weather Map
  • Weather Widgets
  • user-avatar
    Login

    Hourly Weather Jalalabad

    Today, 24 August, Thursday

    Time Temperature Precipitation Wind Pressure Humidity
    00:00 +33°C° 0 mm 1 mps 705 mmHg 52%
    01:00 +32°C° 0 mm 1 mps 705 mmHg 54%
    02:00 +30°C° 0 mm 0 mps 705 mmHg 56%
    03:00 +29°C° 0 mm 0 mps 705 mmHg 58%
    04:00 +29°C° 0 mm 0 mps 705 mmHg 59%
    05:00 +28°C° 0 mm 0 mps 704 mmHg 64%
    06:00 +29°C° 0 mm 0 mps 705 mmHg 61%
    07:00 +32°C° 0 mm 1 mps 705 mmHg 57%
    08:00 +33°C° 0 mm 1 mps 705 mmHg 54%
    09:00 +34°C° 0 mm 1 mps 705 mmHg 50%
    10:00 +36°C° 0 mm 2 mps 705 mmHg 46%
    11:00 +37°C° 0 mm 2 mps 705 mmHg 42%
    12:00 +37°C° 0.1 mm 3 mps 705 mmHg 40%
    13:00 +38°C° 0.1 mm 3 mps 705 mmHg 38%
    14:00 +39°C° 0.1 mm 3 mps 704 mmHg 36%
    15:00 +39°C° 0.2 mm 3 mps 704 mmHg 36%
    16:00 +39°C° 0.2 mm 3 mps 704 mmHg 35%
    17:00 +39°C° 0.2 mm 3 mps 704 mmHg 35%
    18:00 +38°C° 0.2 mm 3 mps 704 mmHg 39%
    19:00 +37°C° 0.2 mm 2 mps 704 mmHg 42%
    20:00 +35°C° 0.2 mm 1 mps 704 mmHg 46%
    21:00 +34°C° 0.5 mm 1 mps 704 mmHg 48%
    22:00 +34°C° 0.5 mm 1 mps 704 mmHg 50%
    23:00 +33°C° 0.5 mm 1 mps 705 mmHg 53%

    Tomorrow, 25 August, Friday

    Time Temperature Precipitation Wind Pressure Humidity
    00:00 +32°C° 0 mm 1 mps 704 mmHg 53%
    01:00 +32°C° 0 mm 1 mps 704 mmHg 54%
    02:00 +29°C° 0 mm 0 mps 704 mmHg 55%
    03:00 +31°C° 0.4 mm 1 mps 704 mmHg 54%
    04:00 +31°C° 0.4 mm 1 mps 704 mmHg 53%
    05:00 +30°C° 0.4 mm 1 mps 704 mmHg 52%
    06:00 +31°C° 0.4 mm 1 mps 704 mmHg 48%
    07:00 +32°C° 0.4 mm 1 mps 704 mmHg 44%
    08:00 +33°C° 0.4 mm 1 mps 705 mmHg 40%
    09:00 +34°C° 0 mm 1 mps 705 mmHg 36%
    10:00 +35°C° 0 mm 1 mps 705 mmHg 32%
    11:00 +37°C° 0 mm 2 mps 705 mmHg 28%
    12:00 +38°C° 0 mm 2 mps 704 mmHg 26%
    13:00 +38°C° 0 mm 2 mps 704 mmHg 24%
    14:00 +39°C° 0 mm 3 mps 703 mmHg 22%
    15:00 +39°C° 0.2 mm 3 mps 703 mmHg 23%
    16:00 +39°C° 0.2 mm 3 mps 703 mmHg 23%
    17:00 +39°C° 0.2 mm 3 mps 703 mmHg 24%
    18:00 +38°C° 0.3 mm 2 mps 703 mmHg 28%
    19:00 +35°C° 0.3 mm 1 mps 703 mmHg 33%
    20:00 +34°C° 0.3 mm 1 mps 703 mmHg 38%
    21:00 +33°C° 0.2 mm 1 mps 703 mmHg 39%
    22:00 +33°C° 0.2 mm 1 mps 703 mmHg 40%
    23:00 +32°C° 0.2 mm 2 mps 703 mmHg 41%

    Day after tomorrow, 26 August, Saturday

    Time Temperature Precipitation Wind Pressure Humidity
    00:00 +32°C° 0 mm 2 mps 703 mmHg 39%
    01:00 +31°C° 0 mm 2 mps 703 mmHg 38%
    02:00 +30°C° 0 mm 2 mps 703 mmHg 36%
    03:00 +30°C° 0 mm 2 mps 703 mmHg 34%
    04:00 +29°C° 0 mm 2 mps 703 mmHg 33%
    05:00 +29°C° 0 mm 2 mps 703 mmHg 31%
    06:00 +30°C° 0 mm 2 mps 703 mmHg 26%
    07:00 +31°C° 0 mm 2 mps 704 mmHg 21%
    08:00 +34°C° 0 mm 2 mps 704 mmHg 17%
    09:00 +35°C° 0 mm 2 mps 704 mmHg 15%
    10:00 +36°C° 0 mm 2 mps 704 mmHg 14%
    11:00 +37°C° 0 mm 2 mps 704 mmHg 13%
    12:00 +38°C° 0 mm 2 mps 704 mmHg 12%
    13:00 +39°C° 0 mm 2 mps 704 mmHg 12%
    14:00 +39°C° 0 mm 2 mps 703 mmHg 11%
    15:00 +39°C° 0 mm 2 mps 703 mmHg 11%
    16:00 +39°C° 0 mm 2 mps 703 mmHg 11%
    17:00 +39°C° 0 mm 2 mps 703 mmHg 12%
    18:00 +38°C° 0 mm 2 mps 703 mmHg 15%
    19:00 +35°C° 0 mm 1 mps 703 mmHg 19%
    20:00 +31°C° 0 mm 0 mps 703 mmHg 23%
    21:00 +33°C° 0 mm 1 mps 703 mmHg 23%
    22:00 +32°C° 0 mm 1 mps 703 mmHg 23%
    23:00 +32°C° 0 mm 2 mps 703 mmHg 23%

    27 August, Sunday

    Time Temperature Precipitation Wind Pressure Humidity
    00:00 +31°C° 0 mm 2 mps 703 mmHg 23%
    01:00 +30°C° 0 mm 2 mps 703 mmHg 24%
    02:00 +29°C° 0 mm 2 mps 703 mmHg 24%
    03:00 +29°C° 0 mm 2 mps 703 mmHg 24%
    04:00 +28°C° 0 mm 2 mps 703 mmHg 24%
    05:00 +28°C° 0 mm 2 mps 703 mmHg 24%
    06:00 +29°C° 0 mm 2 mps 704 mmHg 21%
    07:00 +31°C° 0 mm 1 mps 704 mmHg 18%
    08:00 +32°C° 0 mm 1 mps 705 mmHg 15%
    09:00 +35°C° 0 mm 2 mps 705 mmHg 14%
    10:00 +36°C° 0 mm 2 mps 705 mmHg 13%
    11:00 +37°C° 0 mm 2 mps 705 mmHg 12%
    12:00 +38°C° 0 mm 2 mps 705 mmHg 12%
    13:00 +38°C° 0 mm 2 mps 704 mmHg 11%
    14:00 +39°C° 0 mm 2 mps 704 mmHg 11%
    15:00 +39°C° 0 mm 2 mps 704 mmHg 12%
    16:00 +39°C° 0 mm 2 mps 704 mmHg 12%
    17:00 +39°C° 0 mm 2 mps 704 mmHg 12%
    18:00 +38°C° 0 mm 2 mps 704 mmHg 16%
    19:00 +35°C° 0 mm 1 mps 704 mmHg 19%
    20:00 +31°C° 0 mm 0 mps 704 mmHg 23%
    21:00 +32°C° 0 mm 1 mps 704 mmHg 23%
    22:00 +32°C° 0 mm 1 mps 704 mmHg 24%
    23:00 +31°C° 0 mm 1 mps 705 mmHg 24%

    28 August, Monday

    Time Temperature Precipitation Wind Pressure Humidity
    00:00 +31°C° 0 mm 1 mps 705 mmHg 25%
    01:00 +30°C° 0 mm 1 mps 705 mmHg 27%
    02:00 +29°C° 0 mm 1 mps 704 mmHg 28%
    03:00 +29°C° 0 mm 1 mps 705 mmHg 28%
    04:00 +28°C° 0 mm 1 mps 705 mmHg 28%
    05:00 +28°C° 0 mm 1 mps 705 mmHg 28%
    06:00 +29°C° 0 mm 1 mps 705 mmHg 25%
    07:00 +31°C° 0 mm 1 mps 706 mmHg 21%
    08:00 +33°C° 0 mm 1 mps 706 mmHg 17%
    09:00 +34°C° 0 mm 1 mps 706 mmHg 16%
    10:00 +35°C° 0 mm 1 mps 706 mmHg 15%
    11:00 +36°C° 0 mm 1 mps 706 mmHg 13%
    12:00 +38°C° 0 mm 2 mps 706 mmHg 13%
    13:00 +38°C° 0 mm 2 mps 705 mmHg 13%
    14:00 +39°C° 0 mm 2 mps 705 mmHg 13%
    15:00 +39°C° 0 mm 2 mps 705 mmHg 14%
    16:00 +39°C° 0 mm 2 mps 704 mmHg 14%
    17:00 +39°C° 0 mm 2 mps 704 mmHg 15%
    18:00 +38°C° 0 mm 2 mps 704 mmHg 19%
    19:00 +35°C° 0 mm 1 mps 704 mmHg 22%
    20:00 +33°C° 0 mm 1 mps 704 mmHg 26%
    21:00 +33°C° 0 mm 1 mps 705 mmHg 27%
    22:00 +32°C° 0 mm 1 mps 705 mmHg 29%
    23:00 +31°C° 0 mm 1 mps 705 mmHg 30%

    29 August, Tuesday

    Time Temperature Precipitation Wind Pressure Humidity
    00:00 +29°C° 0 mm 0 mps 705 mmHg 32%
    01:00 +28°C° 0 mm 0 mps 705 mmHg 34%
    02:00 +27°C° 0 mm 0 mps 705 mmHg 35%
    03:00 +27°C° 0 mm 0 mps 705 mmHg 36%
    04:00 +26°C° 0 mm 0 mps 705 mmHg 36%
    05:00 +26°C° 0 mm 0 mps 705 mmHg 37%
    06:00 +28°C° 0 mm 0 mps 706 mmHg 32%
    07:00 +29°C° 0 mm 0 mps 706 mmHg 28%
    08:00 +31°C° 0 mm 0 mps 707 mmHg 24%
    09:00 +34°C° 0 mm 1 mps 707 mmHg 21%
    10:00 +35°C° 0 mm 1 mps 707 mmHg 18%
    11:00 +37°C° 0 mm 2 mps 707 mmHg 15%
    12:00 +38°C° 0 mm 2 mps 706 mmHg 15%
    13:00 +39°C° 0 mm 2 mps 706 mmHg 14%
    14:00 +40°C° 0 mm 2 mps 705 mmHg 14%
    15:00 +40°C° 0 mm 2 mps 705 mmHg 14%
    16:00 +40°C° 0 mm 2 mps 705 mmHg 15%
    17:00 +40°C° 0 mm 2 mps 705 mmHg 16%
    18:00 +38°C° 0 mm 2 mps 705 mmHg 19%
    19:00 +35°C° 0 mm 1 mps 705 mmHg 23%
    20:00 +32°C° 0 mm 0 mps 705 mmHg 26%
    21:00 +31°C° 0 mm 0 mps 705 mmHg 27%
    22:00 +30°C° 0 mm 0 mps 705 mmHg 28%
    23:00 +30°C° 0 mm 0 mps 705 mmHg 29%
    Show more